When you browse on this site, cookies collect data to enhance your experience and personalize the content and advertising you see.
Visit our Privacy Policy to learn more. By continuing to use the site, you agree to this use of cookies and data.

Hourly Weather Toronto

Today, 12 July, Sunday

Time Temperature Precipitation Wind Pressure Humidity
00:00 +22°C° 0 mm 5 mps 742 mmHg 69%
01:00 +22°C° 0 mm 5 mps 742 mmHg 70%
02:00 +21°C° 0 mm 4 mps 742 mmHg 74%
03:00 +21°C° 0 mm 3 mps 742 mmHg 77%
04:00 +20°C° 0 mm 3 mps 741 mmHg 81%
05:00 +21°C° 0 mm 3 mps 742 mmHg 80%
06:00 +21°C° 0 mm 3 mps 742 mmHg 79%
07:00 +22°C° 0 mm 3 mps 743 mmHg 78%
08:00 +24°C° 0.1 mm 3 mps 743 mmHg 72%
09:00 +26°C° 0.1 mm 3 mps 743 mmHg 67%
10:00 +27°C° 0.1 mm 3 mps 743 mmHg 62%
11:00 +28°C° 0.2 mm 3 mps 743 mmHg 59%
12:00 +28°C° 0.2 mm 4 mps 743 mmHg 57%
13:00 +29°C° 0.2 mm 4 mps 743 mmHg 55%
14:00 +28°C° 0.1 mm 4 mps 743 mmHg 57%
15:00 +28°C° 0.1 mm 4 mps 743 mmHg 59%
16:00 +27°C° 0.1 mm 4 mps 743 mmHg 62%
17:00 +26°C° 0 mm 4 mps 743 mmHg 63%
18:00 +25°C° 0 mm 4 mps 744 mmHg 65%
19:00 +23°C° 0 mm 4 mps 744 mmHg 66%
20:00 +22°C° 0 mm 5 mps 744 mmHg 68%
21:00 +21°C° 0 mm 5 mps 744 mmHg 71%
22:00 +20°C° 0 mm 5 mps 744 mmHg 73%
23:00 +20°C° 0 mm 4 mps 744 mmHg 74%

Tomorrow, 13 July, Monday

Time Temperature Precipitation Wind Pressure Humidity
00:00 +20°C° 0 mm 4 mps 745 mmHg 75%
01:00 +20°C° 0 mm 4 mps 745 mmHg 76%
02:00 +19°C° 0.1 mm 4 mps 745 mmHg 78%
03:00 +19°C° 0.1 mm 4 mps 745 mmHg 79%
04:00 +19°C° 0.1 mm 4 mps 745 mmHg 80%
05:00 +19°C° 0 mm 4 mps 745 mmHg 79%
06:00 +19°C° 0 mm 4 mps 746 mmHg 78%
07:00 +20°C° 0 mm 4 mps 746 mmHg 77%
08:00 +21°C° 0 mm 4 mps 746 mmHg 73%
09:00 +22°C° 0 mm 4 mps 747 mmHg 68%
10:00 +23°C° 0 mm 4 mps 747 mmHg 64%
11:00 +25°C° 0.1 mm 4 mps 747 mmHg 60%
12:00 +25°C° 0.1 mm 5 mps 747 mmHg 57%
13:00 +26°C° 0.1 mm 5 mps 747 mmHg 54%
14:00 +26°C° 0.1 mm 5 mps 747 mmHg 54%
15:00 +26°C° 0.1 mm 5 mps 747 mmHg 54%
16:00 +26°C° 0.1 mm 5 mps 747 mmHg 53%
17:00 +25°C° 0 mm 5 mps 747 mmHg 57%
18:00 +23°C° 0 mm 5 mps 747 mmHg 61%
19:00 +22°C° 0 mm 5 mps 748 mmHg 64%
20:00 +21°C° 0 mm 5 mps 748 mmHg 68%
21:00 +20°C° 0 mm 4 mps 748 mmHg 72%
22:00 +19°C° 0 mm 4 mps 748 mmHg 75%
23:00 +19°C° 0 mm 4 mps 748 mmHg 76%

Day after tomorrow, 14 July, Tuesday

Time Temperature Precipitation Wind Pressure Humidity
00:00 +19°C° 0 mm 3 mps 748 mmHg 78%
01:00 +18°C° 0 mm 3 mps 748 mmHg 79%
02:00 +18°C° 0 mm 3 mps 749 mmHg 80%
03:00 +18°C° 0 mm 3 mps 749 mmHg 80%
04:00 +18°C° 0 mm 3 mps 749 mmHg 81%
05:00 +18°C° 0 mm 3 mps 749 mmHg 79%
06:00 +19°C° 0 mm 3 mps 750 mmHg 77%
07:00 +19°C° 0 mm 2 mps 750 mmHg 75%
08:00 +21°C° 0 mm 2 mps 750 mmHg 68%
09:00 +24°C° 0 mm 2 mps 750 mmHg 62%
10:00 +25°C° 0 mm 2 mps 751 mmHg 56%
11:00 +26°C° 0 mm 2 mps 751 mmHg 53%
12:00 +27°C° 0 mm 2 mps 751 mmHg 50%
13:00 +28°C° 0 mm 2 mps 751 mmHg 48%
14:00 +28°C° 0 mm 2 mps 750 mmHg 48%
15:00 +28°C° 0 mm 2 mps 750 mmHg 49%
16:00 +28°C° 0 mm 2 mps 750 mmHg 49%
17:00 +28°C° 0 mm 1 mps 750 mmHg 51%
18:00 +27°C° 0 mm 1 mps 751 mmHg 54%
19:00 +27°C° 0 mm 1 mps 751 mmHg 56%
20:00 +26°C° 0 mm 1 mps 751 mmHg 60%
21:00 +25°C° 0 mm 1 mps 751 mmHg 64%
22:00 +24°C° 0 mm 1 mps 752 mmHg 69%
23:00 +23°C° 0 mm 1 mps 752 mmHg 71%

15 July, Wednesday

Time Temperature Precipitation Wind Pressure Humidity
00:00 +23°C° 0 mm 1 mps 752 mmHg 74%
01:00 +23°C° 0 mm 1 mps 752 mmHg 77%
02:00 +22°C° 0 mm 1 mps 752 mmHg 79%
03:00 +22°C° 0 mm 1 mps 752 mmHg 80%
04:00 +22°C° 0 mm 1 mps 752 mmHg 82%
05:00 +22°C° 0 mm 1 mps 752 mmHg 79%
06:00 +23°C° 0 mm 1 mps 752 mmHg 76%
07:00 +23°C° 0 mm 1 mps 753 mmHg 73%
08:00 +25°C° 0 mm 2 mps 753 mmHg 67%
09:00 +26°C° 0 mm 2 mps 753 mmHg 61%
10:00 +28°C° 0 mm 2 mps 753 mmHg 54%
11:00 +28°C° 0 mm 2 mps 753 mmHg 53%
12:00 +29°C° 0 mm 3 mps 753 mmHg 51%
13:00 +30°C° 0 mm 3 mps 753 mmHg 50%
14:00 +30°C° 0 mm 3 mps 753 mmHg 50%
15:00 +30°C° 0 mm 3 mps 752 mmHg 50%
16:00 +30°C° 0 mm 4 mps 752 mmHg 51%
17:00 +29°C° 0 mm 4 mps 751 mmHg 56%
18:00 +28°C° 0 mm 4 mps 751 mmHg 61%
19:00 +27°C° 0 mm 4 mps 751 mmHg 65%
20:00 +26°C° 0 mm 4 mps 751 mmHg 70%
21:00 +25°C° 0 mm 4 mps 751 mmHg 74%
22:00 +23°C° 0 mm 4 mps 751 mmHg 79%
23:00 +23°C° 0 mm 4 mps 751 mmHg 80%

16 July, Thursday

Time Temperature Precipitation Wind Pressure Humidity
00:00 +23°C° 0 mm 4 mps 750 mmHg 82%
01:00 +24°C° 0 mm 3 mps 750 mmHg 83%
02:00 +24°C° 0 mm 3 mps 749 mmHg 83%
03:00 +24°C° 0 mm 2 mps 749 mmHg 82%
04:00 +24°C° 0 mm 2 mps 749 mmHg 82%
05:00 +24°C° 0 mm 2 mps 749 mmHg 81%
06:00 +25°C° 0 mm 2 mps 749 mmHg 81%
07:00 +25°C° 0 mm 2 mps 749 mmHg 80%
08:00 +25°C° 1.5 mm 3 mps 749 mmHg 82%
09:00 +25°C° 1.5 mm 3 mps 749 mmHg 84%
10:00 +25°C° 1.5 mm 4 mps 748 mmHg 86%
11:00 +25°C° 1.3 mm 4 mps 748 mmHg 84%
12:00 +26°C° 1.3 mm 5 mps 748 mmHg 82%
13:00 +26°C° 1.3 mm 5 mps 748 mmHg 80%
14:00 +27°C° 0.5 mm 6 mps 748 mmHg 75%
15:00 +29°C° 0.5 mm 6 mps 747 mmHg 70%
16:00 +30°C° 0.5 mm 7 mps 747 mmHg 65%
17:00 +29°C° 0 mm 6 mps 747 mmHg 68%
18:00 +28°C° 0 mm 5 mps 747 mmHg 71%
19:00 +27°C° 0 mm 5 mps 748 mmHg 74%
20:00 +26°C° 0 mm 4 mps 748 mmHg 77%
21:00 +25°C° 0 mm 3 mps 748 mmHg 80%
22:00 +24°C° 0 mm 3 mps 749 mmHg 83%
23:00 +24°C° 0 mm 2 mps 749 mmHg 84%

17 July, Friday

Time Temperature Precipitation Wind Pressure Humidity
00:00 +23°C° 0 mm 2 mps 749 mmHg 84%
01:00 +23°C° 0 mm 2 mps 749 mmHg 85%
02:00 +21°C° 0 mm 2 mps 749 mmHg 85%
03:00 +21°C° 0 mm 2 mps 749 mmHg 84%
04:00 +21°C° 0 mm 2 mps 750 mmHg 84%
05:00 +21°C° 0 mm 2 mps 750 mmHg 81%
06:00 +23°C° 0 mm 1 mps 750 mmHg 77%
07:00 +24°C° 0 mm 1 mps 751 mmHg 74%
08:00 +25°C° 0 mm 1 mps 751 mmHg 67%
09:00 +27°C° 0 mm 1 mps 751 mmHg 60%
10:00 +29°C° 0 mm 1 mps 751 mmHg 53%
11:00 +30°C° 0 mm 2 mps 751 mmHg 50%
12:00 +31°C° 0 mm 2 mps 751 mmHg 48%
13:00 +32°C° 0 mm 2 mps 751 mmHg 45%
14:00 +32°C° 0 mm 2 mps 750 mmHg 45%
15:00 +32°C° 0 mm 2 mps 750 mmHg 44%
16:00 +32°C° 0 mm 2 mps 750 mmHg 44%
17:00 +31°C° 0 mm 2 mps 750 mmHg 48%
18:00 +30°C° 0 mm 2 mps 750 mmHg 53%
19:00 +29°C° 0 mm 2 mps 750 mmHg 57%
20:00 +28°C° 0 mm 2 mps 750 mmHg 60%
21:00 +27°C° 0 mm 2 mps 750 mmHg 62%
22:00 +26°C° 0 mm 1 mps 750 mmHg 65%
23:00 +26°C° 0 mm 1 mps 750 mmHg 67%
Show more